{"data":{"norad_id":66327,"epoch":"2026-09-20T12:25:54.187392Z","epoch_age_seconds":95127,"freshness":"FRESH","line1":"1 66327U 25253J   26263.51798828  .00008945  00000+0  33414-3 0  9991","line2":"2 66327  43.0000 191.9864 0000395   8.4995 351.5864 15.27582856 50043","mean_motion":15.27582856,"eccentricity":3.95e-5,"inclination_deg":43,"raan_deg":191.9864,"arg_perigee_deg":8.4995,"mean_anomaly_deg":351.5864,"bstar":0.00033414,"rev_number":5004,"period_min":94.26657247062,"perigee_km":482.76952764854,"apogee_km":483.31156067453,"semimajor_km":6861.1775441615,"source":"CELESTRAK","updated_at":"2026-09-21T09:00:35.874380Z"}}